GW3862 Weather Reports


time (UTC)temp
F
wind
direction
speed
knots
gust
knots
rain 1hr
in
rain 24hr
in
rain mn
in
humidity
%
barometer
mb
20260503014018 64 289 0.9 3.5 0.00 0.00 0.00 36 1013.7
20260503013518 64 288 1.7 3.5 0.00 0.00 0.00 36 1013.7
20260503013051 64 281 1.7 2.6 0.00 0.00 0.00 36 1013.7
20260503012519 64 281 0.9 2.6 0.00 0.00 0.00 37 1013.8
20260503012022 64 279 0.9 2.6 0.00 0.00 0.00 38 1013.8
20260503011813 64 284 0.9 2.6 0.00 0.00 0.00 37 1013.7
20260503011018 64 280 0.9 3.5 0.00 0.00 0.00 37 1013.8
20260503010517 64 270 1.7 3.5 0.00 0.00 0.00 36 1013.8
20260503010046 65 275 0.9 2.6 0.00 0.00 0.00 37 1013.7
20260503005519 65 275 1.7 2.6 0.00 0.00 0.00 34 1013.9
20260503005021 65 288 0.0 1.7 0.00 0.00 0.00 35 1013.8
20260503004604 65 198 0.0 2.6 0.00 0.00 0.00 33 1014.0
20260503004018 66 198 0.0 3.5 0.00 0.00 0.00 32 1014.0
20260503003518 66 165 1.7 7.0 0.00 0.00 0.00 32 1013.9
20260503003052 67 157 3.5 7.8 0.00 0.00 0.00 32 1014.0
20260503002516 68 162 5.2 7.0 0.00 0.00 0.00 30 1014.2
20260503002009 68 138 0.0 4.3 0.00 0.00 0.00 33 1014.2
20260503001607 67 29 0.9 5.2 0.00 0.00 0.00 32 1014.1
20260503001017 67 21 0.9 5.2 0.00 0.00 0.00 33 1014.3
20260503000516 67 85 1.7 4.3 0.00 0.00 0.00 31 1014.4
20260503000054 67 216 2.6 7.0 0.00 0.00 0.00 32 1014.6
20260502235518 67 223 2.6 7.8 0.00 0.00 0.00 32 1014.7
20260502235016 68 221 4.3 7.8 0.00 0.00 0.00 32 1014.7
20260502234550 67 22 0.9 12.2 0.00 0.00 0.00 33 1014.5
20260502234016 67 354 7.0 12.2 0.00 0.00 0.00 32 1014.7
20260502233518 67 254 2.6 8.7 0.00 0.00 0.00 34 1014.8
20260502233050 67 282 4.3 8.7 0.00 0.00 0.00 33 1014.7
20260502232516 67 293 3.5 7.0 0.00 0.00 0.00 33 1014.8
20260502232018 67 160 1.7 7.0 0.00 0.00 0.00 33 1015.0
20260502231552 67 142 1.7 6.1 0.00 0.00 0.00 32 1014.9
20260502231017 66 206 0.9 7.0 0.00 0.00 0.00 33 1014.9
20260502230512 66 196 3.5 7.8 0.00 0.00 0.00 33 1015.0
20260502225518 67 261 3.5 7.0 0.00 0.00 0.00 34 1015.1
20260502225018 67 2 2.6 8.7 0.00 0.00 0.00 34 1015.2
20260502224557 67 183 4.3 8.7 0.00 0.00 0.00 34 1015.2
20260502224018 66 49 0.0 4.3 0.00 0.00 0.00 36 1015.3
20260502223523 66 30 1.7 9.6 0.00 0.00 0.00 36 1015.3
20260502223052 66 254 4.3 11.3 0.00 0.00 0.00 35 1015.1
20260502222520 65 322 6.1 11.3 0.00 0.00 0.00 36 1015.3
20260502222016 65 323 6.1 9.6 0.00 0.00 0.00 36 1015.5
20260502221554 65 255 3.5 8.7 0.00 0.00 0.00 35 1015.7
20260502221016 66 318 5.2 10.4 0.00 0.00 0.00 36 1015.7
20260502220519 66 340 4.3 12.2 0.00 0.00 0.00 35 1015.6
20260502220100 66 332 6.1 13.0 0.00 0.00 0.00 35 1015.7
20260502215519 67 310 8.7 13.0 0.00 0.00 0.00 33 1015.9
20260502215016 69 23 4.3 10.4 0.00 0.00 0.00 33 1015.9
20260502214559 69 349 6.1 10.4 0.00 0.00 0.00 34 1016.0
20260502214017 69 325 5.2 9.6 0.00 0.00 0.00 33 1016.0
20260502213520 67 3 4.3 9.6 0.00 0.00 0.00 35 1015.9
20260502213058 66 335 4.3 10.4 0.00 0.00 0.00 36 1015.9
20260502212519 66 3 5.2 8.7 0.00 0.00 0.00 36 1015.9
20260502212021 65 275 3.5 13.0 0.00 0.00 0.00 36 1016.1
20260502211550 66 296 7.8 13.0 0.00 0.00 0.00 35 1016.2
20260502211016 67 313 2.6 9.6 0.00 0.00 0.00 35 1016.3
20260502210518 67 42 1.7 7.8 0.00 0.00 0.00 33 1016.3
20260502210133 66 270 1.7 8.7 0.00 0.00 0.00 34 1016.2
20260502205516 66 311 1.7 10.4 0.00 0.00 0.00 34 1016.4
20260502205016 65 306 6.1 11.3 0.00 0.00 0.00 36 1016.2
20260502204548 65 302 5.2 11.3 0.00 0.00 0.00 35 1016.4
20260502204016 64 5 6.1 13.0 0.00 0.00 0.00 36 1016.3
20260502203515 65 313 7.8 13.0 0.00 0.00 0.00 35 1016.6
20260502203426 67 311 7.0 11.3 0.00 0.00 0.00 34 1016.6
20260502202516 66 258 1.7 8.7 0.00 0.00 0.00 34 1016.4
20260502202017 66 319 5.2 8.7 0.00 0.00 0.00 36 1016.6
20260502201607 65 265 1.7 7.8 0.00 0.00 0.00 36 1016.5
20260502201015 65 352 1.7 7.0 0.00 0.00 0.00 36 1016.6
20260502200515 65 327 2.6 7.8 0.00 0.00 0.00 38 1016.7
20260502200039 65 359 3.5 7.8 0.00 0.00 0.00 36 1016.8
20260502195511 65 332 0.9 5.2 0.00 0.00 0.00 35 1016.8
20260502195013 64 19 1.7 8.7 0.00 0.00 0.00 35 1016.8
20260502194539 64 333 4.3 8.7 0.00 0.00 0.00 36 1016.8
20260502194014 64 283 3.5 7.8 0.00 0.00 0.00 36 1016.9
20260502193517 64 298 4.3 10.4 0.00 0.00 0.00 36 1016.8
20260502193039 64 303 4.3 10.4 0.00 0.00 0.00 36 1017.1
20260502192516 65 302 5.2 9.6 0.00 0.00 0.00 36 1017.1
20260502192013 64 353 0.9 9.6 0.00 0.00 0.00 36 1017.1
20260502191537 64 203 6.1 9.6 0.00 0.00 0.00 35 1017.2
20260502191014 65 194 2.6 9.6 0.00 0.00 0.00 35 1017.1
20260502190514 64 312 2.6 9.6 0.00 0.00 0.00 38 1017.2
20260502190042 63 270 4.3 10.4 0.00 0.00 0.00 36 1017.4
20260502185520 64 275 6.1 10.4 0.00 0.00 0.00 35 1017.3
20260502185017 66 308 4.3 10.4 0.00 0.00 0.00 33 1017.2
20260502184613 67 342 3.5 8.7 0.00 0.00 0.00 35 1017.3
20260502184015 68 319 4.3 8.7 0.00 0.00 0.00 35 1017.4
20260502183515 68 8 4.3 11.3 0.00 0.00 0.00 34 1017.6
20260502183115 67 18 5.2 11.3 0.00 0.00 0.00 36 1017.6
20260502182519 66 329 6.1 11.3 0.00 0.00 0.00 36 1017.7
20260502182021 65 11 6.1 8.7 0.00 0.00 0.00 36 1017.7
20260502181613 65 307 5.2 9.6 0.00 0.00 0.00 36 1017.9
20260502181021 64 1 4.3 13.0 0.00 0.00 0.00 39 1018.0
20260502180519 63 335 8.7 13.0 0.00 0.00 0.00 40 1017.9
20260502180111 62 306 7.0 10.4 0.00 0.00 0.00 38 1018.0
20260502170520 63 359 8.7 13.0 0.00 0.00 0.00 38 1018.0
20260502164021 62 2 9.6 15.6 0.00 0.00 0.00 39 1018.0
20260502163517 63 348 7.8 17.4 0.00 0.00 0.00 38 1018.1
20260502163056 63 337 9.6 17.4 0.00 0.00 0.00 39 1018.0
20260502162515 62 355 7.8 13.9 0.00 0.00 0.00 40 1018.2
20260502162019 61 351 9.6 15.6 0.00 0.00 0.00 40 1018.1
20260502161544 61 331 9.6 14.8 0.00 0.00 0.00 39 1017.9
20260502161014 61 324 8.7 17.4 0.00 0.00 0.00 40 1018.1
20260502160519 61 329 8.7 17.4 0.00 0.00 0.00 40 1018.2
20260502152016 60 17 9.6 14.8 0.00 0.00 0.00 41 1017.8
20260502151548 59 12 11.3 14.8 0.00 0.00 0.00 41 1017.7
20260502151014 59 316 10.4 14.8 0.00 0.00 0.00 42 1017.6
20260502150515 58 12 8.7 13.9 0.00 0.00 0.00 43 1017.4
20260502150310 58 350 9.6 13.9 0.00 0.00 0.00 43 1017.4
20260502130519 42 235 0.9 2.6 0.00 0.00 0.00 62 1016.4
20260502123518 38 323 0.0 2.6 0.00 0.00 0.00 64 1016.1
20260502123311 38 293 0.0 2.6 0.00 0.00 0.00 64 1016.0
20260502122515 38 256 0.9 2.6 0.00 0.00 0.00 64 1016.0
20260502122014 39 234 0.9 2.6 0.00 0.00 0.00 62 1016.0
20260502121551 39 292 0.0 2.6 0.00 0.00 0.00 62 1015.6
20260502121017 40 292 0.9 3.5 0.00 0.00 0.00 61 1015.5
20260502120517 40 312 0.9 3.5 0.00 0.00 0.00 61 1015.5
20260502115516 40 207 0.0 1.7 0.00 0.00 0.00 60 1015.4
20260502115202 40 207 0.0 2.6 0.00 0.00 0.00 60 1015.5
20260502114547 40 193 0.9 2.6 0.00 0.00 0.00 61 1015.3
20260502114017 40 254 0.0 2.6 0.00 0.00 0.00 61 1015.2
20260502113515 39 275 0.0 3.5 0.00 0.00 0.00 61 1015.2
20260502113044 40 300 0.9 3.5 0.00 0.00 0.00 60 1015.1
20260502112514 40 190 1.7 3.5 0.00 0.00 0.00 58 1015.3
20260502112015 41 177 0.0 1.7 0.00 0.00 0.00 57 1015.2
20260502111543 42 204 0.9 1.7 0.00 0.00 0.00 56 1015.1
20260502111014 42 225 0.0 3.5 0.00 0.00 0.00 56 1015.1
20260502110515 42 219 1.7 3.5 0.00 0.00 0.00 56 1015.0
20260502110039 42 202 0.9 1.7 0.00 0.00 0.00 57 1015.0
20260502105515 42 202 0.0 3.5 0.00 0.00 0.00 55 1015.0
20260502105013 43 202 2.6 3.5 0.00 0.00 0.00 53 1014.7
20260502104540 44 198 1.7 2.6 0.00 0.00 0.00 53 1014.9
20260502104012 43 155 0.9 2.6 0.00 0.00 0.00 53 1015.0
20260502103514 44 133 0.9 2.6 0.00 0.00 0.00 51 1014.7
20260502103037 44 164 0.9 2.6 0.00 0.00 0.00 52 1014.6
20260502102513 44 199 0.9 3.5 0.00 0.00 0.00 51 1014.7
20260502102013 45 204 1.7 5.2 0.00 0.00 0.00 50 1014.5
20260502101552 44 196 1.7 5.2 0.00 0.00 0.00 52 1014.5
20260502101013 44 352 1.7 7.8 0.00 0.00 0.00 51 1014.4
20260502100513 45 301 1.7 9.6 0.00 0.00 0.00 50 1014.5
20260502091015 45 180 6.1 7.8 0.00 0.00 0.00 49 1013.6
20260502090513 45 179 4.3 6.1 0.00 0.00 0.00 49 1013.6
20260502071015 46 173 7.0 8.7 0.00 0.00 0.00 45 1013.3
20260502070515 45 173 6.1 7.8 0.00 0.00 0.00 46 1013.4
20260502070052 44 177 5.2 7.0 0.00 0.00 0.00 47 1013.3
20260502065514 43 180 5.2 7.0 0.00 0.00 0.00 48 1013.4
20260502065017 43 187 4.3 7.0 0.00 0.00 0.00 48 1013.5
20260502064546 43 189 2.6 4.3 0.00 0.00 0.00 49 1013.5
20260502064014 42 191 3.5 5.2 0.00 0.00 0.00 49 1013.4
20260502063517 43 193 2.6 6.1 0.00 0.00 0.00 48 1013.6
20260502063050 43 175 2.6 5.2 0.00 0.00 0.00 47 1013.4
20260502062515 44 202 1.7 6.1 0.00 0.00 0.00 45 1013.5
20260502062020 45 189 2.6 7.0 0.00 0.00 0.00 44 1013.4
20260502061549 46 184 5.2 7.0 0.00 0.00 0.00 43 1013.4
20260502061017 47 180 5.2 7.0 0.00 0.00 0.00 42 1013.3
20260502060518 48 178 6.1 7.0 0.00 0.00 0.00 41 1013.3
20260502060052 49 187 1.7 6.1 0.00 0.00 0.00 39 1013.5
20260502055519 49 189 2.6 6.1 0.00 0.00 0.00 39 1013.3
20260502055016 49 165 4.3 6.1 0.00 0.00 0.00 40 1013.3
20260502054553 49 161 4.3 6.1 0.00 0.00 0.00 39 1013.3
20260502054014 50 162 3.5 4.3 0.00 0.00 0.00 38 1013.2
20260502053520 50 169 3.5 5.2 0.00 0.00 0.00 37 1013.2
20260502053107 51 171 2.6 4.3 0.00 0.00 0.00 37 1013.2
20260502052520 51 173 2.6 6.1 0.00 0.00 0.00 36 1013.3
20260502052018 52 156 4.3 7.0 0.00 0.00 0.00 35 1013.3
20260502051551 54 154 4.3 7.0 0.00 0.00 0.00 33 1013.3
20260502051015 55 172 5.2 7.0 0.00 0.00 0.00 32 1013.4
20260502050518 55 173 5.2 7.0 0.00 0.00 0.00 32 1013.2
20260502050052 54 162 6.1 7.0 0.00 0.00 0.00 32 1013.2
20260502045519 54 160 5.2 7.8 0.00 0.00 0.00 33 1013.2
20260502045020 54 155 6.1 7.8 0.00 0.00 0.00 33 1013.3
20260502044553 53 140 5.2 7.8 0.00 0.00 0.00 34 1013.3
20260502044014 54 144 5.2 7.8 0.00 0.00 0.00 34 1013.2
20260502043518 54 135 6.1 7.8 0.00 0.00 0.00 34 1013.3
20260502043105 54 137 5.2 7.0 0.00 0.00 0.00 34 1013.3
20260502042514 54 150 5.2 6.1 0.00 0.00 0.00 34 1013.3
20260502042017 54 150 5.2 7.0 0.00 0.00 0.00 34 1013.2
20260502041555 54 159 6.1 7.0 0.00 0.00 0.00 33 1013.3
20260502041014 54 162 4.3 7.0 0.00 0.00 0.00 33 1013.1
20260502040518 53 156 3.5 7.0 0.00 0.00 0.00 35 1013.1
20260502040052 51 163 5.2 7.0 0.00 0.00 0.00 36 1013.2
20260502035516 51 163 2.6 3.5 0.00 0.00 0.00 36 1013.2
20260502035019 51 194 0.9 3.5 0.00 0.00 0.00 35 1013.1
20260502034554 51 169 0.9 2.6 0.00 0.00 0.00 36 1013.0
20260502034016 52 85 0.9 2.6 0.00 0.00 0.00 34 1013.0
20260502033516 53 104 1.7 2.6 0.00 0.00 0.00 33 1012.9
20260502033101 54 133 0.0 0.9 0.00 0.00 0.00 32 1012.8
20260502032518 55 133 0.0 2.6 0.00 0.00 0.00 30 1012.6
20260502032016 57 133 0.0 2.6 0.00 0.00 0.00 29 1012.9
20260502031552 58 129 1.7 3.5 0.00 0.00 0.00 28 1012.7
20260502031015 61 120 0.9 4.3 0.00 0.00 0.00 26 1012.7
20260502030516 62 121 2.6 5.2 0.00 0.00 0.00 24 1012.9
20260502030059 62 134 3.5 6.1 0.00 0.00 0.00 24 1012.8
20260502025515 62 133 4.3 6.1 0.00 0.00 0.00 25 1012.8
20260502025016 62 131 4.3 6.1 0.00 0.00 0.00 25 1012.7
20260502024554 62 123 4.3 5.2 0.00 0.00 0.00 25 1012.5
20260502024016 62 127 2.6 5.2 0.00 0.00 0.00 26 1012.6
20260502023519 62 125 3.5 4.3 0.00 0.00 0.00 25 1012.5
20260502023108 62 157 3.5 4.3 0.00 0.00 0.00 26 1012.6
20260502022516 63 169 2.6 7.0 0.00 0.00 0.00 25 1012.6
20260502022016 63 144 3.5 7.0 0.00 0.00 0.00 27 1012.6
20260502021559 64 130 3.5 5.2 0.00 0.00 0.00 26 1012.6
20260502021021 65 144 3.5 5.2 0.00 0.00 0.00 24 1012.7
20260502020515 66 141 3.5 4.3 0.00 0.00 0.00 23 1012.4
20260502020057 67 142 3.5 4.3 0.00 0.00 0.00 22 1012.4
20260502015516 69 139 3.5 6.1 0.00 0.00 0.00 22 1012.5
20260502015015 70 148 3.5 6.1 0.00 0.00 0.00 19 1012.5
20260502014600 71 139 2.6 3.5 0.00 0.00 0.00 19 1012.6